Regional Weather Roundup
Issued by NWS

Home | Current Version | Previous Version | Text Only | Print | Product List | Glossary Off
Versions: 1 2 3 4 5 6 7 8 9 10 11 12 13 14 15 16 17 18 19 20 21 22 23 24 25 26 27 28 29 30 31 32 33 34 35 36 37 38 39 40 41 42 43 44 45 46 47 48 49 50

000
ASUS45 KABQ 020310
RWRNM
WEATHER ROUNDUP FOR NEW MEXICO
NATIONAL WEATHER SERVICE ALBUQUERQUE NM
800 PM MST SUN MAR 01 2015

NOTE: "FAIR" MEANS FEW OR NO CLOUDS BELOW 12,000 FEET AGL WITH NO
       SIGNIFICANT WEATHER OR OBSTRUCTIONS TO VISION.

      THIS PRODUCT IS RELEASED AS TWO VERSIONS.  ONE VERSION NEAR
      THE TOP OF THE HOUR CONTAINING PRELIMINARY DATA FROM ALBUQUERQUE
      AND OTHER STATIONS.  A FINAL VERSION WITH ADDITIONAL DATA IS
      ISSUED ABOUT 10 MINUTES AFTER THE HOUR.

NMZ501-503-504-510>518-020400-
NORTHWEST PLATEAU/NORTHCENTRAL MOUNTAINS

CITY           SKY/WX    TMP DP  RH WIND       PRES   REMARKS
FARMINGTON     PTCLDY    39  35  86 E8        30.07R WCI  33
LOS ALAMOS     DRIZZLE   42  35  76 SE7       30.14R
SANTA FE       CLOUDY    46  32  58 SE13      30.10R
TAOS           PTCLDY    34  28  80 SE7       30.12S WCI  28
ANGEL FIRE     MOCLDY    34  30  86 S16       30.17R WCI  24

$$
NMZ402-403-502-505>509-020400-
WESTCENTRAL MOUNTAINS/SOUTHWEST MOUNTAINS

CITY           SKY/WX    TMP DP  RH WIND       PRES   REMARKS
GALLUP         CLOUDY    45  38  76 SE6       30.07S
GRANTS         CLOUDY    41  36  82 CALM      30.12R
SILVER CITY    MOCLDY    55  25  30 NW3       30.13R

$$
NMZ407-409-411-412-020400-
SOUTHERN DESERTS

CITY           SKY/WX    TMP DP  RH WIND       PRES   REMARKS
LORDSBURG      FAIR      59  27  29 S7        30.04R
DEMING         MOCLDY    59  22  24 W7        30.06R
LAS CRUCES     MOCLDY    59  19  20 S9        30.08R
HOLLOMAN AFB   PTCLDY    60  19  20 N13       30.05R
ALAMOGORDO     PTCLDY    61  16  17 SE12      30.07R
T OR C         MOCLDY    59  22  24 SW6       30.05R

$$
NMZ519>523-020400-
CENTRAL VALLEYS/CENTRAL HIGHLANDS

CITY           SKY/WX    TMP DP  RH WIND       PRES   REMARKS
ALBUQUERQUE    MOCLDY    53  31  42 S15       30.06R
DOUBLE EAGLE   CLEAR     46  32  57 S9        30.07R
MORIARTY ARPT  FAIR      39  31  74 SE16      30.14R WCI  30
CLINES CORNERS FOG       28  27  96 E15       30.16R VSB 1/4 WCI  16
BELEN          FAIR      58  26  28 S14       30.06R
SOCORRO          N/A     56  26  31 S8        30.06R

$$
NMZ524>526-539-540-020400-
SOUTHCENTRAL MOUNTAINS

CITY           SKY/WX    TMP DP  RH WIND       PRES   REMARKS
RUIDOSO        PTCLDY    37  36  93 S9        30.22R WCI  31

$$
NMZ527>531-020400-
NORTHEAST HIGHLANDS/NORTHEAST PLAINS

CITY           SKY/WX    TMP DP  RH WIND       PRES   REMARKS
LAS VEGAS      FOG       27  26  96 S5        30.20R VSB 1/4 WCI  22
RATON          FOG       28  27  96 SW10      30.21R VSB 1/4 WCI  19
CLAYTON        CLOUDY    26  22  84 E7        30.27R WCI  18

$$
NMZ532>537-020400-
EASTCENTRAL PLAINS

CITY           SKY/WX    TMP DP  RH WIND       PRES   REMARKS
TUCUMCARI      CLOUDY    30  27  88 NE12      30.29R FOG     WCI  20
CANNON AFB     CLOUDY    31  30  97 E9        30.28R FOG     WCI  23
CLOVIS AIRPORT CLOUDY    30  28  93 E9        30.29R VSB 3/4 WCI  22

$$
NMZ028-029-538-020400-
SOUTHEAST PLAINS

CITY           SKY/WX    TMP DP  RH WIND       PRES   REMARKS
ROSWELL        CLOUDY    37  34  89 NW8       30.25R WCI  31
ARTESIA        MOCLDY    36  36 100 CALM      30.26R FOG
CARLSBAD       MOCLDY    39  34  82 S7        30.24R WCI  34
HOBBS          CLOUDY    32  32 100 E10       30.29R FOG     WCI  24


$$


USA.gov is the U.S. government's official web portal to all federal, state and local government web resources and services.